This is the latest recevied weather packets stored in our database for station/object K8JCL-13. If no packets are shown the sender has not sent any weather packets the latest 10 day(s).
| Time | Temp. | Humidity | Pressure | Rain* | Wind** | Luminosity | Snow |
|---|---|---|---|---|---|---|---|
| 1777792442 | 1.67° C | 94% | 1018.2 hPa | 0 mm | - | 0 W/m² | - |
| 1777792137 | 1.67° C | 94% | 1018.1 hPa | 0 mm | - | 0 W/m² | - |
| 1777791835 | 1.67° C | 94% | 1018 hPa | 0 mm | - | 0 W/m² | - |
| 1777791533 | 1.67° C | 94% | 1018.1 hPa | 0 mm | - | 0 W/m² | - |
| 1777791230 | 1.11° C | 94% | 1018 hPa | 0 mm | - | 0 W/m² | - |
| 1777790928 | 1.67° C | 93% | 1018.1 hPa | 0 mm | - | 0 W/m² | - |
| 1777790625 | 1.67° C | 93% | 1018.2 hPa | 0 mm | - | 0 W/m² | - |
| 1777790322 | 1.67° C | 93% | 1018.3 hPa | 0 mm | - | 0 W/m² | - |
| 1777790020 | 1.67° C | 91% | 1018.1 hPa | 0 mm | - | 0 W/m² | - |
| 1777789718 | 1.67° C | 91% | 1018.4 hPa | 0 mm | - | 0 W/m² | - |
| 1777789417 | 1.67° C | 91% | 1018.4 hPa | 0 mm | - | 0 W/m² | - |
| 1777789114 | 2.22° C | 91% | 1018.5 hPa | 0 mm | - | 0 W/m² | - |
| 1777788810 | 2.22° C | 91% | 1018.5 hPa | 0 mm | - | 0 W/m² | - |
| 1777788506 | 2.22° C | 91% | 1018.5 hPa | 0 mm | - | 0 W/m² | - |
| 1777788201 | 2.22° C | 91% | 1018.5 hPa | 0 mm | - | 0 W/m² | - |
| 1777787896 | 2.22° C | 92% | 1018.3 hPa | 0 mm | - | 0 W/m² | - |
| 1777787593 | 2.22° C | 92% | 1018.5 hPa | 0 mm | - | 0 W/m² | - |
| 1777787289 | 2.22° C | 91% | 1018.7 hPa | 0 mm | - | 0 W/m² | - |
| 1777786984 | 1.67° C | 90% | 1018.7 hPa | 0 mm | - | 0 W/m² | - |
| 1777786682 | 1.67° C | 89% | 1018.8 hPa | 0 mm | - | 0 W/m² | - |
| 1777786381 | 2.22° C | 89% | 1018.6 hPa | 0 mm | - | 0 W/m² | - |
| 1777786076 | 2.78° C | 89% | 1018.6 hPa | 0 mm | - | 0 W/m² | - |
| 1777785774 | 2.78° C | 88% | 1018.5 hPa | 0 mm | - | 0 W/m² | - |
| 1777785469 | 2.22° C | 88% | 1018.6 hPa | 0 mm | - | 0 W/m² | - |
| 1777785166 | 2.22° C | 88% | 1018.5 hPa | 0 mm | - | 0 W/m² | - |
* Rain latest hour (hover to see other rain measurements)
** Current wind speed in m/s (hover to see current wind gust speed)